Regional Weather Roundup
Issued by NWS Sterling, VA

Home | Current Version | Previous Version | Text Only | Print | Product List | Glossary On
Versions: 1 2 3 4 5 6 7 8 9 10 11 12 13 14 15 16 17 18 19 20 21 22 23 24 25 26 27 28 29 30 31 32 33 34 35 36 37 38 39 40 41 42 43 44 45 46 47 48 49 50
000
ASUS41 KLWX 230310
RWRLWX

REGIONAL WEATHER ROUNDUP
NATIONAL WEATHER SERVICE BALTIMORE MD/WASHINGTON DC
1100 PM EDT MON SEP 22 2014

Note: "FAIR" indicates few or no clouds below 12,000 feet
with no significant weather and/or obstructions to visibility.
 TC=TEMPERATURE CELSIUS

 * =Non NWS site. Station does not report precipitation (e.g. rain,
    snow, etc.), thunder, or fog.

DCZ001-MDZ009-015-VAZ040>042-051-053>054-230400-
WASHINGTON METRO

CITY           SKY/WX    TMP DP  RH WIND       PRES   REMARKS
WASHINGTON NAT MOCLDY    62  42  47 N10       30.24R
DULLES         MOCLDY    56  44  64 NW6       30.24R
ANDREWS AFB    MOCLDY    58  44  57 N8        30.22R
QUANTICO       MOCLDY    61  46  57 N12G22    30.23R
COLLEGE PARK*  MOCLDY    59  45  58 NW3       30.23R
LEESBURG*      PTCLDY    54  48  82 NW3       30.26R
MANASSAS*      MOCLDY    55  46  71 N3        30.24R
GAITHERSBURG*  CLEAR     50  45  81 CALM      30.27R

$$

MDZ006>007-011-014-230400-
BALTIMORE METRO

CITY           SKY/WX    TMP DP  RH WIND       PRES   REMARKS
BWI AIRPORT    PTCLDY    56  43  61 NW3       30.22R
MD SCIENCE CTR   N/A     61  42  49 MISG      30.22R
MARTIN STATE   PTCLDY    55  46  71 NW7       30.23R
ANNAPOLIS      MOCLDY    62  46  55 MISG      30.22R
FORT MEADE*    PTCLDY    50  45  81 CALM      30.24R

$$

MDZ012-015-019>023-230400-
MARYLAND EASTERN SHORE

CITY           SKY/WX    TMP DP  RH WIND       PRES   REMARKS
OCEAN CITY     CLEAR     59  49  69 N5        30.18R
SALISBURY      PTCLDY    62  48  60 N6        30.18R
BAY BRIDGE AP*   N/A     61  43  51 N13G18    30.21R
CAMBRIDGE*     MOCLDY    64  46  52 NW10      30.18R
EASTON*        MOCLDY    62  47  58 N5        30.24

$$

MDZ017>025-230400-
SOUTHERN MARYLAND

CITY           SKY/WX    TMP DP  RH WIND       PRES   REMARKS
PATUXENT RIVER MOCLDY    63  44  50 N13       30.20R
ST INIGOES     MOCLDY    63  43  48 N6        30.18R
LEONARDTOWN*   MOCLDY    61  43  51 CALM      30.21R

$$

MDZ003>005-230400-
NORTH CENTRAL MARYLAND

CITY           SKY/WX    TMP DP  RH WIND       PRES   REMARKS
FREDERICK*     CLEAR     55  45  67 NW3       30.26R
HAGERSTOWN APT CLEAR     53  40  61 NW8       30.24R
WESTMINSTER*   CLOUDY    55  45  67 N3        30.22R

$$

MDZ501>502-230400-
WESTERN MARYLAND

CITY           SKY/WX    TMP DP  RH WIND       PRES   REMARKS
OAKLAND*       MOCLDY    43 N/A N/A NW5       30.26R
CUMBERLAND*    PTCLDY    52  37  58 CALM      30.30R

$$

VAZ025>031-230400-
SHENANDOAH VALLEY

CITY           SKY/WX    TMP DP  RH WIND       PRES   REMARKS
WINCHESTER*    MOCLDY    52  41  66 NW5       30.25R
STAUNTON*      MOCLDY    56  44  62 N8        30.26R

$$

WVZ021-048>050-054>055-230400-
EASTERN WEST VIRGINIA PANHANDLE

CITY           SKY/WX    TMP DP  RH WIND       PRES   REMARKS
MARTINSBURG    CLEAR     55  39  54 NW5       30.26R
PETERSBURG*    CLEAR     46  42  87 CALM      30.29R

$$

VAZ036>039-050-230400-
CENTRAL FOOTHILLS

CITY           SKY/WX    TMP DP  RH WIND       PRES   REMARKS
CHARLOTTESVILL MOCLDY    55  48  77 CALM      30.21R
ORANGE*        MOCLDY    59  45  58 N6        30.24R

$$

VAZ055>057-230400-
NORTH AND CENTRAL PIEDMONT

CITY           SKY/WX    TMP DP  RH WIND       PRES   REMARKS
FREDERICKSBRG* CLOUDY    61  48  62 N6        30.21R
STAFFORD*      CLOUDY    57  47  69 N7        30.26R

$$

NCZ024-NYZ072-PAZ021-071-VAZ022-071-230400-
OTHER REGIONAL OBSERVATIONS

CITY           SKY/WX    TMP DP  RH WIND       PRES   REMARKS
NEW YORK CITY  CLEAR     57  38  48 VRB6      30.19R
PHILADELPHIA   MOCLDY    60  41  49 NW12      30.20R
PITTSBURGH     CLEAR     50  41  71 VRB5      30.28R
ROANOKE        MOCLDY    59  46  62 NW3       30.24R
RICHMOND       MOCLDY    64  46  52 N12       30.18R
RALEIGH        CLOUDY    64  58  80 CALM      30.16R

$$

ANZ530>537-230400-
MARINE OBSERVATIONS

STATION/POSITION TIME  TEMP    WIND        PRES
                       AIR SEA DIR/SP/G
                 (UTC) (F)     (DEG/KT/KT) (MB)
THOMAS PT LIGHT  0300   62 72  350/ 14/ 17 1023.9R
BALT KEY BRIDGE  0300   62     320/ 17/ 19 1023.0R
COVE POINT       0300   64     350/ 21/ 23 1022.2R
LEWISETTA        0300   65 73   10/ 13/ 19 1021.9R
SOLOMONS ISLAND  0300      75                N/A
PINEY POINT      0300           20/ 13/ 16   N/A

$$




USA.gov is the U.S. government's official web portal to all federal, state and local government web resources and services.